Weather in Pushkin

Russia / Saint-Petersburg and Leningrad Oblast     59°43′20″N   30°25′01″E
temp.,
°C
wind,
m/s
gust,
m/s
humid.,
%
clouds,
%
prec.,
mm/h
press.,
hPa
HPBL,
m
12 april, mon
mon1200:00+4se3767100 0.0 1029148
03:00+5ese3981100 0.2 1028309
06:00+6ese3109492 0.3 1026264
09:00+9sse5148092 0.3 1025407
12:00+14s61357100 0.0 1025859
15:00+16s61248100 0.0 10241351
18:00+15sse61150100 0.0 10221046
21:00+11sse413665 0.0 1022281
13 april, tue
tue1300:00+10sse51368100 0.0 1021366
03:00+8sse51273100 0.0 1020329
06:00+6s4118313 0.0 1019270
09:00+9s477038 0.0 1020354
12:00+13ssw475668 0.0 1019816
15:00+10nw5568100 0.0 1020656
18:00+6nw477498 0.0 1021355
21:00+4nw4877100 0.2 1022345
14 april, wed
wed1400:00+4nnw2682100 0.2 1022299
03:00+3nnw2683100 0.3 1021331
06:00+2n2592100 0.3 1020265
09:00+2ene2494100 1.6 1020275
12:00+3nne2486100 1.1 1020379
15:00+6n2466100 1.5 1020747
18:00+6nw3467100 0.0 1021392
21:00+3nw2480100 0.0 1022110
15 april, thu
thu1500:00+2nnw2284100 0.0 102368
03:00+2nne2287100 0.0 102425
06:00+1nne248797 0.0 102479
09:00+5nne477147 0.0 1025452
12:00+7ne565570 0.0 1026999
15:00+8ne56495 0.0 10251140
18:00+7ne57535 0.0 1026897
21:00+3nne310725 0.0 1026286
16 april, fri
fri1600:00+2nne38800 0.0 1027162
03:00+1nne37864 0.0 1027124
06:000nne27908 0.0 1028157
09:00+5ne4961100 0.0 1029557
12:00+8ne574884 0.0 1030982
15:00+9ne684226 0.0 10301036
18:00+8ne59526 0.0 1031945
21:00+5ne413715 0.0 1033404